| time (UTC) | temp F | wind direction | speed MPH | gust MPH | rain 1hr in | rain 24hr in | rain mn in | humidity % | barometer mb |
| 20260906033810 | 0 | 142 | 0.0 | 0.0 | 0.00 | 0.00 | 0.00 | 1061.9 | |
| 20260906033309 | 0 | 143 | 0.0 | 0.0 | 0.00 | 0.00 | 0.00 | 1061.8 | |
| 20260906032806 | 0 | 139 | 0.0 | 0.0 | 0.00 | 0.00 | 0.00 | 1062.1 | |
| 20260906032305 | 0 | 134 | 0.0 | 0.0 | 0.00 | 0.00 | 0.00 | 1061.9 | |
| 20260906031756 | 0 | 141 | 0.0 | 0.0 | 0.00 | 0.00 | 0.00 | 1061.9 | |
| 20260906031253 | 0 | 139 | 0.0 | 0.0 | 0.00 | 0.00 | 0.00 | 1061.9 | |
| 20260906030752 | 0 | 138 | 0.0 | 0.0 | 0.00 | 0.00 | 0.00 | 1061.8 | |
| 20260906030247 | 0 | 134 | 0.0 | 0.0 | 0.00 | 0.00 | 0.00 | 1061.7 | |
| 20260906025747 | 0 | 138 | 0.0 | 0.0 | 0.00 | 0.00 | 0.00 | 1061.8 | |
| 20260906025241 | 0 | 136 | 0.0 | 0.0 | 0.00 | 0.00 | 0.00 | 1061.7 | |
| 20260906024740 | 0 | 136 | 0.0 | 0.0 | 0.00 | 0.00 | 0.00 | 1061.7 | |
| 20260906024239 | 0 | 128 | 0.0 | 1.0 | 0.00 | 0.00 | 0.00 | 1061.4 | |
| 20260906023735 | 0 | 138 | 0.0 | 0.0 | 0.00 | 0.00 | 0.00 | 1061.7 | |
| 20260906023230 | 0 | 136 | 0.0 | 0.0 | 0.00 | 0.00 | 0.00 | 1061.6 | |
| 20260906022726 | 0 | 136 | 0.0 | 0.0 | 0.00 | 0.00 | 0.00 | 1061.6 | |
| 20260906022221 | 0 | 136 | 0.0 | 0.0 | 0.00 | 0.00 | 0.00 | 1061.5 | |
| 20260906021717 | 0 | 136 | 0.0 | 0.0 | 0.00 | 0.00 | 0.00 | 1061.3 | |
| 20260906021215 | 0 | 140 | 0.0 | 0.0 | 0.00 | 0.00 | 0.00 | 1061.3 | |
| 20260906020711 | 0 | 138 | 0.0 | 0.0 | 0.00 | 0.00 | 0.00 | 1061.5 | |
| 20260906020205 | 0 | 136 | 0.0 | 0.0 | 0.00 | 0.00 | 0.00 | 1061.3 | |
| 20260906015700 | 0 | 133 | 0.0 | 0.0 | 0.00 | 0.00 | 0.00 | 1060.9 | |
| 20260906015159 | 0 | 140 | 0.0 | 0.0 | 0.00 | 0.00 | 0.00 | 1060.9 | |
| 20260906014658 | 0 | 139 | 0.0 | 0.0 | 0.00 | 0.00 | 0.00 | 1060.8 | |
| 20260906014154 | 0 | 138 | 0.0 | 0.0 | 0.00 | 0.00 | 0.00 | 1061.1 | |
| 20260906013651 | 0 | 138 | 0.0 | 0.0 | 0.00 | 0.00 | 0.00 | 1060.9 | |
| 20260906013146 | 0 | 131 | 0.0 | 1.0 | 0.00 | 0.00 | 0.00 | 1061.2 | |
| 20260906012645 | 0 | 129 | 0.0 | 0.0 | 0.00 | 0.00 | 0.00 | 1061.1 | |
| 20260906012140 | 0 | 142 | 0.0 | 0.0 | 0.00 | 0.00 | 0.00 | 1060.8 | |
| 20260906011635 | 0 | 141 | 0.0 | 0.0 | 0.00 | 0.00 | 0.00 | 1061.0 | |
| 20260906011131 | 0 | 148 | 0.0 | 0.0 | 0.00 | 0.00 | 0.00 | 1060.7 | |
| 20260906010625 | 0 | 141 | 0.0 | 0.0 | 0.00 | 0.00 | 0.00 | 1060.4 | |
| 20260906010116 | 0 | 147 | 0.0 | 1.0 | 0.00 | 0.00 | 0.00 | 1060.8 | |
| 20260906005615 | 0 | 156 | 0.0 | 1.0 | 0.00 | 0.00 | 0.00 | 1060.7 | |
| 20260906005114 | 0 | 155 | 0.0 | 1.0 | 0.00 | 0.00 | 0.00 | 1060.9 | |
| 20260906004614 | 0 | 147 | 0.0 | 1.0 | 0.00 | 0.00 | 0.00 | 1060.7 | |
| 20260906004108 | 0 | 143 | 1.0 | 2.0 | 0.00 | 0.00 | 0.00 | 1060.9 | |
| 20260906003604 | 0 | 158 | 0.0 | 2.0 | 0.00 | 0.00 | 0.00 | 1061.0 | |
| 20260906003101 | 0 | 157 | 2.0 | 5.0 | 0.00 | 0.00 | 0.00 | 1061.2 | |
| 20260906002600 | 0 | 190 | 4.0 | 6.0 | 0.00 | 0.00 | 0.00 | 1061.0 | |
| 20260906002055 | 0 | 204 | 2.0 | 3.0 | 0.00 | 0.00 | 0.00 | 1061.1 | |
| 20260906001545 | 0 | 153 | 0.0 | 1.0 | 0.00 | 0.00 | 0.00 | 1061.1 | |
| 20260906001044 | 0 | 159 | 1.0 | 3.0 | 0.00 | 0.00 | 0.00 | 1061.2 | |
| 20260906000541 | 0 | 149 | 1.0 | 2.0 | 0.00 | 0.00 | 0.00 | 1060.9 | |
| 20260906000035 | 0 | 137 | 1.0 | 2.0 | 0.00 | 0.00 | 0.00 | 1061.0 | |
| 20260905235529 | 0 | 138 | 0.0 | 2.0 | 0.00 | 0.00 | 0.00 | 1060.9 | |
| 20260905235024 | 0 | 176 | 1.0 | 9.0 | 0.00 | 0.00 | 0.00 | 1060.7 | |
| 20260905234520 | 0 | 127 | 1.0 | 3.0 | 0.00 | 0.00 | 0.00 | 1060.9 | |
| 20260905234014 | 0 | 174 | 7.0 | 13.0 | 0.00 | 0.00 | 0.00 | 1060.9 | |
| 20260905233509 | 0 | 143 | 2.0 | 10.0 | 0.00 | 0.00 | 0.00 | 1060.7 | |
| 20260905233009 | 0 | 119 | 1.0 | 2.0 | 0.00 | 0.00 | 0.00 | 1060.3 | |
| 20260905232504 | 0 | 107 | 1.0 | 2.0 | 0.00 | 0.00 | 0.00 | 1060.4 | |
| 20260905232000 | 0 | 99 | 2.0 | 3.0 | 0.00 | 0.00 | 0.00 | 1060.1 | |
| 20260905231450 | 0 | 78 | 0.0 | 1.0 | 0.00 | 0.00 | 0.00 | 1059.9 | |
| 20260905230947 | 0 | 355 | 1.0 | 2.0 | 0.00 | 0.00 | 0.00 | 1060.3 | |
| 20260905230444 | 0 | 127 | 0.0 | 1.0 | 0.00 | 0.00 | 0.00 | 1060.0 | |
| 20260905225937 | 0 | 141 | 0.0 | 1.0 | 0.00 | 0.00 | 0.00 | 1059.9 | |
| 20260905225432 | 0 | 101 | 1.0 | 1.0 | 0.00 | 0.00 | 0.00 | 1059.8 | |
| 20260905224927 | 0 | 97 | 1.0 | 2.0 | 0.00 | 0.00 | 0.00 | 1059.9 | |
| 20260905224423 | 0 | 121 | 1.0 | 1.0 | 0.00 | 0.00 | 0.00 | 1060.0 | |
| 20260905223916 | 0 | 114 | 0.0 | 2.0 | 0.00 | 0.00 | 0.00 | 1060.2 | |
| 20260905223414 | 0 | 114 | 1.0 | 1.0 | 0.00 | 0.00 | 0.00 | 1060.2 | |
| 20260905222909 | 0 | 136 | 0.0 | 2.0 | 0.00 | 0.00 | 0.00 | 1060.1 | |
| 20260905222408 | 0 | 118 | 1.0 | 1.0 | 0.00 | 0.00 | 0.00 | 1060.1 | |
| 20260905221904 | 0 | 121 | 1.0 | 2.0 | 0.00 | 0.00 | 0.00 | 1060.0 | |
| 20260905221400 | 0 | 101 | 1.0 | 2.0 | 0.00 | 0.00 | 0.00 | 1060.1 | |
| 20260905220855 | 0 | 137 | 0.0 | 2.0 | 0.00 | 0.00 | 0.00 | 1060.0 | |
| 20260905220352 | 0 | 102 | 1.0 | 2.0 | 0.00 | 0.00 | 0.00 | 1060.1 | |
| 20260905215851 | 0 | 81 | 1.0 | 3.0 | 0.00 | 0.00 | 0.00 | 1060.2 | |
| 20260905215347 | 0 | 98 | 2.0 | 2.0 | 0.00 | 0.00 | 0.00 | 1060.3 | |
| 20260905214843 | 0 | 126 | 1.0 | 3.0 | 0.00 | 0.00 | 0.00 | 1060.1 | |
| 20260905214338 | 0 | 121 | 1.0 | 3.0 | 0.00 | 0.00 | 0.00 | 1060.0 | |
| 20260905213833 | 0 | 71 | 2.0 | 2.0 | 0.00 | 0.00 | 0.00 | 1060.1 | |
| 20260905213329 | 0 | 115 | 1.0 | 2.0 | 0.00 | 0.00 | 0.00 | 1059.9 | |
| 20260905212824 | 0 | 92 | 1.0 | 5.0 | 0.00 | 0.00 | 0.00 | 1060.3 | |
| 20260905212318 | 0 | 148 | 3.0 | 6.0 | 0.00 | 0.00 | 0.00 | 1060.2 | |
| 20260905211813 | 0 | 320 | 3.0 | 5.0 | 0.00 | 0.00 | 0.00 | 1060.2 | |
| 20260905211308 | 0 | 306 | 5.0 | 6.0 | 0.00 | 0.00 | 0.00 | 1060.3 | |
| 20260905210805 | 0 | 116 | 3.0 | 5.0 | 0.00 | 0.00 | 0.00 | 1060.4 | |
| 20260905210304 | 0 | 129 | 2.0 | 3.0 | 0.00 | 0.00 | 0.00 | 1060.6 | |
| 20260905205803 | 0 | 151 | 1.0 | 3.0 | 0.00 | 0.00 | 0.00 | 1060.7 | |
| 20260905205258 | 0 | 106 | 1.0 | 3.0 | 0.00 | 0.00 | 0.00 | 1060.6 | |
| 20260905204757 | 0 | 218 | 2.0 | 2.0 | 0.00 | 0.00 | 0.00 | 1060.8 | |
| 20260905204254 | 0 | 171 | 1.0 | 2.0 | 0.00 | 0.00 | 0.00 | 1060.8 | |
| 20260905203752 | 0 | 192 | 2.0 | 3.0 | 0.00 | 0.00 | 0.00 | 1060.9 | |
| 20260905203248 | 0 | 207 | 2.0 | 2.0 | 0.00 | 0.00 | 0.00 | 1061.0 | |
| 20260905202744 | 0 | 338 | 3.0 | 5.0 | 0.00 | 0.00 | 0.00 | 1061.1 | |
| 20260905202238 | 0 | 216 | 1.0 | 6.0 | 0.00 | 0.00 | 0.00 | 1061.1 | |
| 20260905201734 | 0 | 96 | 1.0 | 2.0 | 0.00 | 0.00 | 0.00 | 1061.3 | |
| 20260905201229 | 0 | 345 | 2.0 | 3.0 | 0.00 | 0.00 | 0.00 | 1061.3 | |
| 20260905200724 | 0 | 78 | 2.0 | 3.0 | 0.00 | 0.00 | 0.00 | 1061.4 | |
| 20260905200220 | 0 | 318 | 3.0 | 5.0 | 0.00 | 0.00 | 0.00 | 1061.3 | |
| 20260905195717 | 0 | 68 | 1.0 | 5.0 | 0.00 | 0.00 | 0.00 | 1061.7 | |
| 20260905195212 | 0 | 89 | 2.0 | 3.0 | 0.00 | 0.00 | 0.00 | 1061.3 | |
| 20260905194708 | 0 | 84 | 3.0 | 3.0 | 0.00 | 0.00 | 0.00 | 1061.4 | |
| 20260905194208 | 0 | 149 | 2.0 | 5.0 | 0.00 | 0.00 | 0.00 | 1061.5 | |
| 20260905193702 | 0 | 61 | 1.0 | 2.0 | 0.00 | 0.00 | 0.00 | 1061.4 | |
| 20260905193157 | 0 | 156 | 0.0 | 3.0 | 0.00 | 0.00 | 0.00 | 1061.6 | |
| 20260905192653 | 0 | 15 | 3.0 | 5.0 | 0.00 | 0.00 | 0.00 | 1061.6 | |
| 20260905192149 | 0 | 115 | 1.0 | 1.0 | 0.00 | 0.00 | 0.00 | 1061.8 | |
| 20260905191648 | 0 | 141 | 1.0 | 2.0 | 0.00 | 0.00 | 0.00 | 1061.8 | |
| 20260905191146 | 0 | 122 | 1.0 | 2.0 | 0.00 | 0.00 | 0.00 | 1061.9 | |
| 20260905190644 | 0 | 157 | 1.0 | 2.0 | 0.00 | 0.00 | 0.00 | 1062.1 | |
| 20260905190138 | 0 | 171 | 2.0 | 5.0 | 0.00 | 0.00 | 0.00 | 1062.1 | |
| 20260905185638 | 0 | 30 | 1.0 | 5.0 | 0.00 | 0.00 | 0.00 | 1062.2 | |
| 20260905185138 | 0 | 14 | 3.0 | 5.0 | 0.00 | 0.00 | 0.00 | 1062.2 | |
| 20260905184632 | 0 | 269 | 2.0 | 2.0 | 0.00 | 0.00 | 0.00 | 1062.2 | |
| 20260905184131 | 0 | 241 | 3.0 | 5.0 | 0.00 | 0.00 | 0.00 | 1062.4 | |
| 20260905183631 | 0 | 97 | 1.0 | 3.0 | 0.00 | 0.00 | 0.00 | 1062.3 | |
| 20260905183126 | 0 | 114 | 1.0 | 2.0 | 0.00 | 0.00 | 0.00 | 1062.5 | |
| 20260905182625 | 0 | 265 | 2.0 | 3.0 | 0.00 | 0.00 | 0.00 | 1062.5 | |
| 20260905182125 | 0 | 193 | 3.0 | 5.0 | 0.00 | 0.00 | 0.00 | 1062.3 | |
| 20260905181620 | 0 | 144 | 2.0 | 5.0 | 0.00 | 0.00 | 0.00 | 1062.6 | |
| 20260905181119 | 0 | 286 | 3.0 | 5.0 | 0.00 | 0.00 | 0.00 | 1062.6 | |
| 20260905180614 | 0 | 34 | 3.0 | 5.0 | 0.00 | 0.00 | 0.00 | 1062.6 | |
| 20260905180110 | 0 | 154 | 1.0 | 2.0 | 0.00 | 0.00 | 0.00 | 1062.7 | |
| 20260905175609 | 0 | 83 | 1.0 | 3.0 | 0.00 | 0.00 | 0.00 | 1062.9 | |
| 20260905175104 | 0 | 128 | 1.0 | 3.0 | 0.00 | 0.00 | 0.00 | 1062.9 | |
| 20260905174600 | 0 | 328 | 5.0 | 6.0 | 0.00 | 0.00 | 0.00 | 1062.9 | |
| 20260905174055 | 0 | 199 | 1.0 | 2.0 | 0.00 | 0.00 | 0.00 | 1063.1 | |
| 20260905173551 | 0 | 152 | 0.0 | 2.0 | 0.00 | 0.00 | 0.00 | 1063.1 | |
| 20260905173046 | 0 | 155 | 1.0 | 1.0 | 0.00 | 0.00 | 0.00 | 1063.0 | |
| 20260905172545 | 0 | 127 | 1.0 | 2.0 | 0.00 | 0.00 | 0.00 | 1063.3 | |
| 20260905172040 | 0 | 10 | 3.0 | 3.0 | 0.00 | 0.00 | 0.00 | 1063.4 | |
| 20260905171537 | 0 | 62 | 4.0 | 5.0 | 0.00 | 0.00 | 0.00 | 1063.5 | |
| 20260905171033 | 0 | 87 | 1.0 | 2.0 | 0.00 | 0.00 | 0.00 | 1063.3 | |
| 20260905170529 | 0 | 118 | 2.0 | 3.0 | 0.00 | 0.00 | 0.00 | 1063.6 | |
| 20260905170024 | 0 | 355 | 3.0 | 6.0 | 0.00 | 0.00 | 0.00 | 1063.3 | |
| 20260905165518 | 0 | 81 | 2.0 | 3.0 | 0.00 | 0.00 | 0.00 | 1063.7 | |
| 20260905165013 | 0 | 194 | 1.0 | 3.0 | 0.00 | 0.00 | 0.00 | 1063.7 | |
| 20260905164508 | 0 | 125 | 3.0 | 5.0 | 0.00 | 0.00 | 0.00 | 1063.6 | |
| 20260905164003 | 0 | 12 | 4.0 | 5.0 | 0.00 | 0.00 | 0.00 | 1063.7 | |
| 20260905163459 | 0 | 247 | 3.0 | 3.0 | 0.00 | 0.00 | 0.00 | 1063.8 | |
| 20260905162955 | 0 | 356 | 1.0 | 3.0 | 0.00 | 0.00 | 0.00 | 1063.7 | |
| 20260905162450 | 0 | 349 | 1.0 | 2.0 | 0.00 | 0.00 | 0.00 | 1063.6 | |
| 20260905161945 | 0 | 101 | 3.0 | 6.0 | 0.00 | 0.00 | 0.00 | 1064.0 | |
| 20260905161444 | 0 | 119 | 0.0 | 3.0 | 0.00 | 0.00 | 0.00 | 1063.8 | |
| 20260905160942 | 0 | 89 | 1.0 | 2.0 | 0.00 | 0.00 | 0.00 | 1063.7 | |
| 20260905160436 | 0 | 305 | 3.0 | 3.0 | 0.00 | 0.00 | 0.00 | 1063.9 | |
| 20260905155936 | 0 | 131 | 1.0 | 5.0 | 0.00 | 0.00 | 0.00 | 1063.9 | |
| 20260905155431 | 0 | 121 | 2.0 | 3.0 | 0.00 | 0.00 | 0.00 | 1063.9 | |
| 20260905154930 | 0 | 283 | 2.0 | 3.0 | 0.00 | 0.00 | 0.00 | 1064.0 | |
| 20260905154425 | 0 | 73 | 2.0 | 3.0 | 0.00 | 0.00 | 0.00 | 1063.9 | |
| 20260905153920 | 0 | 143 | 1.0 | 2.0 | 0.00 | 0.00 | 0.00 | 1063.8 | |
| 20260905153417 | 0 | 97 | 1.0 | 3.0 | 0.00 | 0.00 | 0.00 | 1063.8 | |
| 20260905152916 | 0 | 255 | 3.0 | 5.0 | 0.00 | 0.00 | 0.00 | 1063.7 | |
| 20260905152415 | 0 | 193 | 1.0 | 3.0 | 0.00 | 0.00 | 0.00 | 1063.8 | |
| 20260905151910 | 0 | 95 | 3.0 | 5.0 | 0.00 | 0.00 | 0.00 | 1063.9 | |
| 20260905151406 | 0 | 142 | 0.0 | 2.0 | 0.00 | 0.00 | 0.00 | 1063.7 | |
| 20260905150901 | 0 | 296 | 2.0 | 2.0 | 0.00 | 0.00 | 0.00 | 1063.8 | |
| 20260905150401 | 0 | 139 | 2.0 | 5.0 | 0.00 | 0.00 | 0.00 | 1063.7 | |
| 20260905145858 | 0 | 221 | 2.0 | 5.0 | 0.00 | 0.00 | 0.00 | 1063.5 | |
| 20260905145357 | 0 | 144 | 1.0 | 2.0 | 0.00 | 0.00 | 0.00 | 1063.8 | |
| 20260905144852 | 0 | 16 | 4.0 | 5.0 | 0.00 | 0.00 | 0.00 | 1063.6 | |
| 20260905144347 | 0 | 158 | 2.0 | 3.0 | 0.00 | 0.00 | 0.00 | 1063.5 | |
| 20260905143845 | 0 | 274 | 4.0 | 5.0 | 0.00 | 0.00 | 0.00 | 1063.5 | |
| 20260905143340 | 0 | 207 | 4.0 | 5.0 | 0.00 | 0.00 | 0.00 | 1063.5 | |
| 20260905142839 | 0 | 253 | 2.0 | 7.0 | 0.00 | 0.00 | 0.00 | 1063.4 | |
| 20260905142338 | 0 | 290 | 2.0 | 6.0 | 0.00 | 0.00 | 0.00 | 1063.4 | |
| 20260905141834 | 0 | 182 | 2.0 | 2.0 | 0.00 | 0.00 | 0.00 | 1063.5 | |
| 20260905141329 | 0 | 212 | 1.0 | 3.0 | 0.00 | 0.00 | 0.00 | 1063.5 | |
| 20260905140825 | 0 | 182 | 1.0 | 2.0 | 0.00 | 0.00 | 0.00 | 1063.6 | |
| 20260905140320 | 0 | 95 | 1.0 | 2.0 | 0.00 | 0.00 | 0.00 | 1063.5 | |
| 20260905135818 | 0 | 161 | 2.0 | 6.0 | 0.00 | 0.00 | 0.00 | 1063.7 | |
| 20260905135314 | 0 | 155 | 1.0 | 2.0 | 0.00 | 0.00 | 0.00 | 1063.5 | |
| 20260905134809 | 0 | 149 | 1.0 | 3.0 | 0.00 | 0.00 | 0.00 | 1063.3 | |
| 20260905134302 | 0 | 214 | 1.0 | 6.0 | 0.00 | 0.00 | 0.00 | 1063.4 | |
| 20260905133757 | 0 | 138 | 1.0 | 3.0 | 0.00 | 0.00 | 0.00 | 1063.5 | |
| 20260905133253 | 0 | 213 | 1.0 | 6.0 | 0.00 | 0.00 | 0.00 | 1063.6 | |
| 20260905132752 | 0 | 252 | 2.0 | 2.0 | 0.00 | 0.00 | 0.00 | 1063.5 | |
| 20260905132248 | 0 | 160 | 1.0 | 3.0 | 0.00 | 0.00 | 0.00 | 1063.4 | |
| 20260905131742 | 0 | 220 | 1.0 | 2.0 | 0.00 | 0.00 | 0.00 | 1063.3 | |
| 20260905131237 | 0 | 142 | 1.0 | 3.0 | 0.00 | 0.00 | 0.00 | 1063.3 | |
| 20260905130732 | 0 | 183 | 1.0 | 2.0 | 0.00 | 0.00 | 0.00 | 1063.1 | |
| 20260905130231 | 0 | 178 | 1.0 | 1.0 | 0.00 | 0.00 | 0.00 | 1063.0 | |
| 20260905125727 | 0 | 147 | 0.0 | 1.0 | 0.00 | 0.00 | 0.00 | 1063.1 | |
| 20260905125221 | 0 | 151 | 0.0 | 1.0 | 0.00 | 0.00 | 0.00 | 1063.0 | |
| 20260905124718 | 0 | 154 | 0.0 | 1.0 | 0.00 | 0.00 | 0.00 | 1063.3 | |
| 20260905124214 | 0 | 146 | 0.0 | 1.0 | 0.00 | 0.00 | 0.00 | 1062.8 | |
| 20260905123708 | 0 | 149 | 0.0 | 1.0 | 0.00 | 0.00 | 0.00 | 1062.9 | |
| 20260905123206 | 0 | 147 | 0.0 | 0.0 | 0.00 | 0.00 | 0.00 | 1062.8 | |
| 20260905122705 | 0 | 146 | 0.0 | 1.0 | 0.00 | 0.00 | 0.00 | 1062.9 | |
| 20260905122159 | 0 | 148 | 0.0 | 0.0 | 0.00 | 0.00 | 0.00 | 1062.8 | |
| 20260905121654 | 0 | 151 | 0.0 | 1.0 | 0.00 | 0.00 | 0.00 | 1062.8 | |
| 20260905121150 | 0 | 148 | 0.0 | 0.0 | 0.00 | 0.00 | 0.00 | 1062.8 | |
| 20260905120649 | 0 | 147 | 0.0 | 1.0 | 0.00 | 0.00 | 0.00 | 1062.7 | |
| 20260905120143 | 0 | 141 | 0.0 | 2.0 | 0.00 | 0.00 | 0.00 | 1062.6 | |
| 20260905115638 | 0 | 159 | 1.0 | 1.0 | 0.00 | 0.00 | 0.00 | 1062.7 | |
| 20260905115133 | 0 | 146 | 0.0 | 1.0 | 0.00 | 0.00 | 0.00 | 1062.7 | |
| 20260905114632 | 0 | 149 | 0.0 | 1.0 | 0.00 | 0.00 | 0.00 | 1062.5 | |
| 20260905114131 | 0 | 145 | 0.0 | 1.0 | 0.00 | 0.00 | 0.00 | 1062.4 | |
| 20260905113626 | 0 | 147 | 0.0 | 1.0 | 0.00 | 0.00 | 0.00 | 1062.7 | |
| 20260905113121 | 0 | 156 | 0.0 | 1.0 | 0.00 | 0.00 | 0.00 | 1062.5 | |
| 20260905112618 | 0 | 147 | 0.0 | 0.0 | 0.00 | 0.00 | 0.00 | 1062.5 | |
| 20260905112112 | 0 | 151 | 0.0 | 1.0 | 0.00 | 0.00 | 0.00 | 1062.5 | |
| 20260905111611 | 0 | 144 | 0.0 | 1.0 | 0.00 | 0.00 | 0.00 | 1062.6 | |
| 20260905111111 | 0 | 147 | 0.0 | 1.0 | 0.00 | 0.00 | 0.00 | 1062.3 | |
| 20260905110610 | 0 | 150 | 0.0 | 1.0 | 0.00 | 0.00 | 0.00 | 1062.4 | |
| 20260905110105 | 0 | 159 | 1.0 | 2.0 | 0.00 | 0.00 | 0.00 | 1062.3 | |
| 20260905105600 | 0 | 146 | 0.0 | 1.0 | 0.00 | 0.00 | 0.00 | 1062.3 | |
| 20260905105054 | 0 | 148 | 0.0 | 0.0 | 0.00 | 0.00 | 0.00 | 1062.4 | |
| 20260905104550 | 0 | 147 | 0.0 | 0.0 | 0.00 | 0.00 | 0.00 | 1062.4 | |
| 20260905104049 | 0 | 146 | 0.0 | 0.0 | 0.00 | 0.00 | 0.00 | 1062.4 | |
| 20260905103545 | 0 | 142 | 0.0 | 0.0 | 0.00 | 0.00 | 0.00 | 1062.5 | |
| 20260905103041 | 0 | 146 | 0.0 | 0.0 | 0.00 | 0.00 | 0.00 | 1062.4 | |
| 20260905102536 | 0 | 146 | 0.0 | 0.0 | 0.00 | 0.00 | 0.00 | 1062.5 | |
| 20260905102033 | 0 | 146 | 0.0 | 0.0 | 0.00 | 0.00 | 0.00 | 1062.5 | |
| 20260905101530 | 0 | 147 | 0.0 | 0.0 | 0.00 | 0.00 | 0.00 | 1062.7 | |
| 20260905101029 | 0 | 144 | 0.0 | 0.0 | 0.00 | 0.00 | 0.00 | 1062.3 | |
| 20260905100525 | 0 | 149 | 0.0 | 0.0 | 0.00 | 0.00 | 0.00 | 1062.7 | |
| 20260905100020 | 0 | 148 | 0.0 | 0.0 | 0.00 | 0.00 | 0.00 | 1062.7 | |
| 20260905095514 | 0 | 145 | 0.0 | 0.0 | 0.00 | 0.00 | 0.00 | 1062.6 | |
| 20260905095009 | 0 | 148 | 0.0 | 0.0 | 0.00 | 0.00 | 0.00 | 1062.7 | |
| 20260905094504 | 0 | 146 | 0.0 | 0.0 | 0.00 | 0.00 | 0.00 | 1062.3 | |
| 20260905094003 | 0 | 148 | 0.0 | 1.0 | 0.00 | 0.00 | 0.00 | 1062.4 | |
| 20260905093458 | 0 | 147 | 0.0 | 1.0 | 0.00 | 0.00 | 0.00 | 1062.6 | |
| 20260905092954 | 0 | 153 | 0.0 | 1.0 | 0.00 | 0.00 | 0.00 | 1062.5 | |
| 20260905092449 | 0 | 151 | 0.0 | 1.0 | 0.00 | 0.00 | 0.00 | 1062.3 | |
| 20260905091944 | 0 | 156 | 0.0 | 1.0 | 0.00 | 0.00 | 0.00 | 1062.4 | |
| 20260905091439 | 0 | 160 | 1.0 | 1.0 | 0.00 | 0.00 | 0.00 | 1062.2 | |
| 20260905090938 | 0 | 146 | 1.0 | 1.0 | 0.00 | 0.00 | 0.00 | 1062.2 | |
| 20260905090434 | 0 | 145 | 0.0 | 1.0 | 0.00 | 0.00 | 0.00 | 1062.1 | |
| 20260905085932 | 0 | 146 | 0.0 | 1.0 | 0.00 | 0.00 | 0.00 | 1062.0 | |
| 20260905085426 | 0 | 145 | 0.0 | 1.0 | 0.00 | 0.00 | 0.00 | 1062.2 | |
| 20260905084923 | 0 | 150 | 0.0 | 1.0 | 0.00 | 0.00 | 0.00 | 1062.2 | |
| 20260905084422 | 0 | 153 | 0.0 | 1.0 | 0.00 | 0.00 | 0.00 | 1062.0 | |
| 20260905083917 | 0 | 158 | 0.0 | 1.0 | 0.00 | 0.00 | 0.00 | 1062.0 | |
| 20260905083412 | 0 | 154 | 1.0 | 1.0 | 0.00 | 0.00 | 0.00 | 1062.1 | |
| 20260905082908 | 0 | 164 | 1.0 | 1.0 | 0.00 | 0.00 | 0.00 | 1062.0 | |
| 20260905082404 | 0 | 148 | 0.0 | 1.0 | 0.00 | 0.00 | 0.00 | 1062.0 | |
| 20260905081858 | 0 | 144 | 1.0 | 1.0 | 0.00 | 0.00 | 0.00 | 1061.9 | |
| 20260905081353 | 0 | 165 | 1.0 | 1.0 | 0.00 | 0.00 | 0.00 | 1061.8 | |
| 20260905080852 | 0 | 155 | 0.0 | 1.0 | 0.00 | 0.00 | 0.00 | 1062.0 | |
| 20260905080346 | 0 | 149 | 1.0 | 1.0 | 0.00 | 0.00 | 0.00 | 1061.9 | |
| 20260905075845 | 0 | 150 | 1.0 | 1.0 | 0.00 | 0.00 | 0.00 | 1061.9 | |
| 20260905075339 | 0 | 161 | 1.0 | 1.0 | 0.00 | 0.00 | 0.00 | 1062.1 | |
| 20260905074838 | 0 | 167 | 1.0 | 2.0 | 0.00 | 0.00 | 0.00 | 1061.9 | |
| 20260905074329 | 0 | 154 | 0.0 | 1.0 | 0.00 | 0.00 | 0.00 | 1062.0 | |
| 20260905073825 | 0 | 150 | 0.0 | 1.0 | 0.00 | 0.00 | 0.00 | 1061.9 | |
| 20260905073320 | 0 | 158 | 1.0 | 1.0 | 0.00 | 0.00 | 0.00 | 1062.1 | |
| 20260905072820 | 0 | 161 | 0.0 | 1.0 | 0.00 | 0.00 | 0.00 | 1062.2 | |
| 20260905072315 | 0 | 156 | 0.0 | 1.0 | 0.00 | 0.00 | 0.00 | 1062.2 | |
| 20260905071811 | 0 | 152 | 1.0 | 2.0 | 0.00 | 0.00 | 0.00 | 1062.3 | |
| 20260905071308 | 0 | 167 | 1.0 | 1.0 | 0.00 | 0.00 | 0.00 | 1062.4 | |
| 20260905070802 | 0 | 164 | 1.0 | 2.0 | 0.00 | 0.00 | 0.00 | 1062.4 | |
| 20260905070258 | 0 | 160 | 1.0 | 2.0 | 0.00 | 0.00 | 0.00 | 1062.5 | |
| 20260905065757 | 0 | 146 | 1.0 | 2.0 | 0.00 | 0.00 | 0.00 | 1062.3 | |
| 20260905065250 | 0 | 147 | 1.0 | 1.0 | 0.00 | 0.00 | 0.00 | 1062.6 | |
| 20260905064746 | 0 | 140 | 3.0 | 5.0 | 0.00 | 0.00 | 0.00 | 1062.6 | |
| 20260905064241 | 0 | 150 | 0.0 | 1.0 | 0.00 | 0.00 | 0.00 | 1062.7 | |
| 20260905063739 | 0 | 158 | 1.0 | 1.0 | 0.00 | 0.00 | 0.00 | 1062.4 | |
| 20260905063235 | 0 | 148 | 1.0 | 1.0 | 0.00 | 0.00 | 0.00 | 1062.3 | |
| 20260905062726 | 0 | 152 | 1.0 | 2.0 | 0.00 | 0.00 | 0.00 | 1062.6 | |
| 20260905062225 | 0 | 147 | 1.0 | 1.0 | 0.00 | 0.00 | 0.00 | 1062.4 | |
| 20260905061720 | 0 | 154 | 1.0 | 1.0 | 0.00 | 0.00 | 0.00 | 1062.5 | |
| 20260905061215 | 0 | 144 | 1.0 | 1.0 | 0.00 | 0.00 | 0.00 | 1062.5 | |
| 20260905060714 | 0 | 149 | 0.0 | 2.0 | 0.00 | 0.00 | 0.00 | 1062.6 | |
| 20260905060211 | 0 | 163 | 1.0 | 2.0 | 0.00 | 0.00 | 0.00 | 1062.3 | |
| 20260905055709 | 0 | 159 | 1.0 | 2.0 | 0.00 | 0.00 | 0.00 | 1062.3 | |
| 20260905055205 | 0 | 148 | 1.0 | 3.0 | 0.00 | 0.00 | 0.00 | 1062.3 | |
| 20260905054700 | 0 | 180 | 2.0 | 2.0 | 0.00 | 0.00 | 0.00 | 1062.5 | |
| 20260905054156 | 0 | 137 | 1.0 | 3.0 | 0.00 | 0.00 | 0.00 | 1062.3 | |
| 20260905053655 | 0 | 175 | 2.0 | 2.0 | 0.00 | 0.00 | 0.00 | 1062.4 | |
| 20260905053150 | 0 | 162 | 1.0 | 3.0 | 0.00 | 0.00 | 0.00 | 1062.3 | |
| 20260905052645 | 0 | 159 | 1.0 | 6.0 | 0.00 | 0.00 | 0.00 | 1062.2 | |
| 20260905052140 | 0 | 162 | 1.0 | 5.0 | 0.00 | 0.00 | 0.00 | 1062.4 | |
| 20260905051635 | 0 | 161 | 3.0 | 5.0 | 0.00 | 0.00 | 0.00 | 1062.3 | |
| 20260905051132 | 0 | 178 | 2.0 | 5.0 | 0.00 | 0.00 | 0.00 | 1062.3 | |
| 20260905050628 | 0 | 165 | 3.0 | 7.0 | 0.00 | 0.00 | 0.00 | 1062.3 | |
| 20260905050124 | 0 | 157 | 2.0 | 3.0 | 0.00 | 0.00 | 0.00 | 1062.1 | |
| 20260905045618 | 0 | 185 | 4.0 | 5.0 | 0.00 | 0.00 | 0.00 | 1062.4 | |
| 20260905045114 | 0 | 178 | 4.0 | 6.0 | 0.00 | 0.00 | 0.00 | 1062.5 | |
| 20260905044614 | 0 | 180 | 4.0 | 5.0 | 0.00 | 0.00 | 0.00 | 1062.3 | |
| 20260905044109 | 0 | 158 | 2.0 | 5.0 | 0.00 | 0.00 | 0.00 | 1062.3 | |
| 20260905043607 | 0 | 182 | 2.0 | 5.0 | 0.00 | 0.00 | 0.00 | 1062.3 | |
| 20260905043103 | 0 | 166 | 3.0 | 6.0 | 0.00 | 0.00 | 0.00 | 1062.3 | |
| 20260905042601 | 0 | 168 | 2.0 | 3.0 | 0.00 | 0.00 | 0.00 | 1062.3 | |
| 20260905042057 | 0 | 142 | 2.0 | 5.0 | 0.00 | 0.00 | 0.00 | 1062.5 | |
| 20260905041552 | 0 | 169 | 2.0 | 5.0 | 0.00 | 0.00 | 0.00 | 1062.3 | |
| 20260905041048 | 0 | 170 | 2.0 | 2.0 | 0.00 | 0.00 | 0.00 | 1062.7 | |
| 20260905040547 | 0 | 160 | 2.0 | 3.0 | 0.00 | 0.00 | 0.00 | 1062.5 | |
| 20260905040046 | 0 | 170 | 3.0 | 3.0 | 0.00 | 0.00 | 0.00 | 1062.6 | |
| 20260905035541 | 0 | 133 | 1.0 | 3.0 | 0.00 | 0.00 | 0.00 | 1062.4 | |
| 20260905035038 | 0 | 160 | 2.0 | 2.0 | 0.00 | 0.00 | 0.00 | 1062.4 | |
| 20260905034534 | 0 | 156 | 1.0 | 2.0 | 0.00 | 0.00 | 0.00 | 1062.6 | |
| 20260905034033 | 0 | 162 | 2.0 | 3.0 | 0.00 | 0.00 | 0.00 | 1062.5 |